Vorticity
7 6 5 9 11 11 12 10 10 9 4 2 3 6 3 4 9 6 5 7 7 -5 -6 7 -0 2 4 -3 -3 0 3 2 4 5 6 5 3 3 5 5 5 5 5 4 4 4 5 5 5 5 5 5 6 7 7 6 6 6 6 6 5 5 5 5 4 4 4 4 4 4 5 5 6 6 7 8 8 8 8 8 9 8 6 5 4 4 5 5 5 5 5 5 5 5 4 4 3
7 7 10 13 14 14 11 7 7 9 11 11 9 12 11 8 11 7 6 8 10 -3 -9 9 10 3 2 0 2 4 2 1 4 5 6 6 4 4 5 5 5 4 4 5 5 5 6 6 6 7 7 7 8 8 8 8 8 7 7 6 6 6 6 6 5 5 5 5 6 6 7 7 8 8 9 10 9 9 9 10 9 7 5 4 4 4 5 4 5 5 5 4 4 4 3 3 3
8 7 11 9 6 8 5 4 9 14 17 18 14 14 15 14 13 9 6 6 7 -0 -9 -1 6 3 1 3 2 3 3 1 2 4 7 7 7 6 6 7 6 6 6 7 8 8 8 7 7 7 8 8 8 8 8 8 8 8 7 7 7 7 7 7 6 6 6 7 8 8 8 8 9 8 9 9 9 10 10 10 9 7 5 5 5 5 4 4 5 5 4 4 3 4 4 3 3
13 11 13 12 9 15 11 6 9 10 13 15 13 11 12 12 12 11 9 7 2 -3 0 3 2 3 2 3 -1 0 4 4 6 6 9 10 10 8 8 7 7 8 7 7 8 8 8 7 7 7 7 7 7 7 8 8 8 8 8 8 8 8 8 8 8 8 8 8 9 8 9 9 9 8 8 8 8 10 10 10 8 6 5 4 5 5 5 4 5 5 4 5 3 3 4 3 3
9 15 17 21 21 25 20 14 13 10 10 9 9 9 7 6 6 8 9 7 -0 -6 4 9 6 6 4 4 4 5 7 6 7 6 6 7 7 7 8 7 6 6 6 6 5 5 5 5 6 5 5 5 6 5 6 6 6 6 6 7 7 8 7 8 8 8 8 8 8 8 8 8 8 8 8 7 8 8 9 10 8 6 4 3 4 4 5 5 5 5 5 5 3 2 3 4 3
8 12 9 12 12 13 13 10 12 8 4 3 7 11 7 3 3 5 6 7 4 -2 1 4 3 6 8 10 11 9 7 5 5 4 4 3 4 5 5 6 6 5 5 6 6 6 5 5 6 5 6 6 6 5 6 6 5 5 5 5 5 5 5 6 7 7 7 7 7 7 7 7 7 7 8 8 8 7 8 9 8 5 3 2 2 3 4 5 6 5 5 5 4 3 2 3 4
12 10 2 4 3 3 5 3 3 0 -2 1 5 6 3 2 2 2 2 4 6 4 1 -1 -2 1 6 8 7 5 4 4 4 4 3 3 4 4 4 5 5 5 5 5 6 6 6 6 6 6 6 7 7 7 7 7 7 7 7 6 5 5 5 5 5 5 6 6 6 6 6 6 6 6 6 7 7 8 8 9 9 6 2 0 0 1 2 4 5 6 6 5 5 4 3 3 3
4 4 1 0 -2 1 4 1 -1 -1 1 6 5 0 0 2 4 5 4 4 7 8 4 2 3 2 2 4 4 3 3 4 3 2 3 3 4 4 3 4 4 4 4 4 4 4 5 5 5 5 4 5 6 6 6 6 6 6 7 7 7 8 7 7 7 7 6 6 6 6 6 5 6 5 5 6 6 7 7 8 9 8 5 1 -1 -1 -1 1 3 5 7 6 5 4 3 3 2
1 2 6 4 1 3 3 2 1 1 3 5 4 4 6 5 7 10 11 11 11 11 8 5 7 6 5 5 4 4 4 3 2 2 3 4 4 4 4 4 4 4 4 5 5 5 5 5 6 6 6 7 7 7 7 7 7 6 6 6 6 7 7 7 7 7 7 7 7 7 6 6 6 6 5 5 5 5 5 6 8 9 8 4 1 -2 -2 -2 -1 2 5 7 6 4 3 2 2
8 3 5 7 7 6 3 2 2 3 5 4 6 8 9 9 10 10 8 7 6 6 5 5 5 5 5 5 4 4 3 3 3 3 4 5 5 5 6 6 6 6 7 7 7 7 7 8 8 8 9 8 8 9 9 9 9 9 9 9 9 9 8 7 6 6 6 6 6 6 6 6 6 6 6 5 5 4 4 5 6 7 8 7 5 2 -0 -1 -2 -1 1 5 7 6 4 2 2
5 3 4 5 7 7 8 8 7 9 10 9 8 6 6 6 6 4 2 2 2 3 3 3 4 4 4 4 4 4 4 4 4 4 4 5 5 6 6 6 7 6 7 6 7 7 7 8 8 7 7 7 7 7 7 8 8 8 9 9 9 9 8 7 7 7 7 6 6 6 5 5 5 6 6 6 6 6 5 5 5 5 6 7 7 6 4 3 2 1 0 2 5 7 6 4 3
4 6 10 9 9 9 11 12 10 10 10 8 5 2 2 2 1 0 1 2 2 2 3 3 3 3 4 4 4 4 4 4 4 4 4 5 5 5 6 6 6 6 7 6 6 6 6 6 6 6 6 6 7 6 6 5 5 5 6 5 5 5 5 6 6 7 7 7 7 7 6 5 5 5 5 6 6 6 6 6 5 5 5 5 5 6 6 5 5 4 4 3 5 6 7 6 4
10 8 9 8 7 7 6 6 5 3 4 4 3 2 2 3 2 2 2 3 2 2 2 3 3 3 3 3 3 3 3 3 4 4 4 4 4 4 5 6 6 6 6 5 5 4 4 4 4 4 5 5 6 5 4 4 4 4 3 3 4 4 5 4 4 4 4 4 5 5 6 6 6 6 5 5 5 5 6 6 6 6 6 5 5 5 5 5 4 4 5 4 5 5 6 7 6
11 9 7 5 3 3 1 -1 -1 -1 0 1 1 2 2 2 2 3 3 3 4 3 4 3 4 4 4 4 4 4 3 3 4 3 4 4 4 5 5 5 4 4 3 3 3 2 2 1 1 1 2 2 1 2 2 3 3 3 2 3 3 3 2 2 2 2 3 3 3 3 4 4 5 5 5 5 5 5 5 6 5 6 6 6 6 6 6 5 5 5 5 5 5 6 6 6 6
8 6 5 5 4 2 2 1 1 2 3 3 3 3 3 4 3 3 4 4 4 4 4 4 4 5 5 5 4 4 4 4 3 3 4 5 5 4 3 2 2 2 2 2 3 3 2 2 2 2 2 2 1 2 2 2 2 2 2 2 2 2 2 3 3 4 4 4 4 4 4 4 5 5 5 5 5 6 6 6 6 6 6 6 6 6 6 6 5 5 5 5 5 6 6 6 6
4 4 2 3 4 3 3 3 3 4 4 4 5 5 5 5 4 4 5 5 5 5 5 4 4 4 4 4 3 3 3 3 3 3 4 3 3 2 2 3 3 3 3 3 3 3 3 3 3 3 3 3 2 2 2 2 2 2 2 3 3 3 4 4 4 4 4 4 5 4 4 4 5 5 5 5 5 5 5 5 6 6 6 6 6 7 7 7 6 6 5 5 5 6 5 6 5
2 3 2 2 2 2 3 3 4 4 4 5 5 5 5 4 5 5 5 5 5 5 5 4 5 4 4 3 3 3 3 4 4 4 3 3 3 4 4 4 4 4 4 4 4 4 3 3 3 4 3 3 3 3 3 3 3 3 3 4 4 4 4 3 3 3 3 3 3 3 3 3 3 4 4 4 4 4 4 4 4 4 4 5 5 5 6 6 6 6 6 5 5 5 5 6 6
3 2 2 2 2 3 4 4 4 5 6 6 5 5 5 5 5 5 5 6 6 5 4 4 5 4 4 4 4 4 5 5 5 5 4 4 4 4 4 4 4 4 4 4 4 4 4 4 4 4 4 4 4 4 4 4 4 4 4 4 4 4 3 3 3 3 3 3 3 3 3 3 3 3 3 3 3 3 3 3 3 3 3 3 3 3 4 4 5 5 5 5 5 5 5 5 5
4 3 3 3 4 5 4 4 4 5 5 5 5 5 4 4 5 5 5 5 5 4 4 4 4 4 4 4 4 5 5 5 4 4 4 4 4 3 3 3 3 3 4 4 4 4 4 5 4 4 4 5 5 4 5 5 4 4 4 4 4 4 4 4 4 4 4 4 4 4 3 3 3 3 3 3 3 3 3 3 3 3 3 3 3 3 3 3 3 4 4 4 4 4 4 4 5
4 4 4 4 5 5 4 4 4 4 4 3 4 3 3 4 4 5 4 4 4 4 4 4 4 4 4 4 4 4 4 4 4 4 4 5 5 5 5 5 5 5 5 6 6 6 6 6 6 6 6 6 6 6 6 6 6 6 5 5 4 5 4 4 5 4 5 4 5 4 4 4 4 4 4 4 4 4 4 4 4 4 4 4 4 4 4 4 4 4 3 3 3 3 3 4 4
5 4 4 4 3 4 4 4 4 4 3 3 3 3 3 4 4 4 3 3 3 4 4 4 5 5 5 5 5 5 5 5 5 5 5 6 6 7 7 7 7 8 8 8 8 8 7 7 7 7 7 6 7 7 7 7 7 7 6 6 6 6 6 6 6 5 5 5 5 5 5 4 4 5 4 5 5 5 5 4 4 5 5 4 5 5 5 5 5 5 5 5 4 4 4 4 4
3 3 3 4 3 3 3 3 3 3 3 4 4 4 4 3 3 3 4 4 4 5 5 5 5 5 5 5 5 5 5 5 5 5 5 5 5 5 5 5 6 6 6 5 5 5 5 6 6 6 6 5 5 5 5 5 6 5 5 5 5 5 5 5 5 5 5 5 5 5 5 5 5 5 5 5 5 5 5 5 5 5 5 5 5 5 5 5 5 6 6 6 6 5 4 4 4
4 4 4 4 3 3 4 4 5 5 5 5 5 4 4 4 5 5 5 4 4 3 3 3 3 4 4 4 4 4 3 4 4 4 4 4 4 4 3 3 3 2 2 2 2 2 2 2 2 2 2 2 1 1 0 0 1 1 1 1 2 2 2 2 2 3 3 3 4 4 4 4 4 4 4 4 4 5 5 5 5 5 5 5 5 5 5 5 5 5 5 6 6 6 6 6 5
4 4 3 3 4 4 4 4 4 4 4 4 4 4 4 4 4 4 4 4 4 4 4 4 4 4 4 5 4 4 5 5 5 5 5 5 5 5 4 4 4 3 3 3 2 2 2 1 1 1 1 1 2 2 2 2 2 3 3 4 4 4 5 5 5 5 5 5 5 5 6 6 6 6 5 5 5 5 5 5 5 5 5 5 5 4 4 5 5 5 5 5 6 6 6 6 6
4 4 4 4 4 4 4 3 4 4 4 5 5 5 6 6 6 6 6 7 7 6 6 6 6 6 6 6 6 6 7 6 6 6 6 6 5 5 5 4 4 4 3 3 4 4 5 5 6 6 7 8 8 8 8 9 9 8 8 8 8 8 8 8 8 8 8 8 8 8 8 8 8 8 7 7 7 6 6 5 5 5 5 5 5 5 5 4 4 4 4 4 5 5 5 5 5
6 6 6 6 5 5 5 5 5 5 6 6 7 7 8 8 8 8 8 7 7 7 7 8 8 7 7 7 6 6 6 6 6 5 5 5 5 5 5 5 6 7 7 8 9 10 10 10 11 10 10 10 10 10 9 9 9 9 9 9 9 9 9 9 9 9 9 9 9 10 9 9 9 9 10 9 9 9 8 8 8 7 7 7 6 6 6 6 5 5 5 4 4 5 5 5 5
5 5 5 6 6 7 7 6 6 7 7 7 7 7 6 6 7 6 6 6 6 6 6 5 5 5 5 5 5 5 5 5 5 5 5 6 7 7 8 8 9 9 9 10 10 10 10 10 10 10 10 10 10 10 10 9 9 9 9 9 8 9 9 9 8 8 9 9 9 9 9 9 9 9 9 9 9 10 9 9 9 9 9 8 8 8 8 8 7 7 7 7 6 6 6 6 6
6 5 5 5 7 8 8 9 9 9 9 8 8 7 7 7 7 6 5 5 5 5 5 5 5 5 5 6 6 6 6 7 7 7 8 8 8 9 8 8 8 8 7 7 7 7 7 8 8 8 9 9 10 10 11 11 11 11 11 11 11 10 10 10 10 10 10 10 10 9 10 9 9 9 9 9 8 8 9 9 9 9 9 9 8 8 7 7 7 7 7 7 7 7 7 7 8
8 8 8 7 7 7 7 8 9 8 8 8 8 8 8 8 7 7 7 8 8 7 8 8 8 8 8 8 8 8 8 9 9 9 9 10 9 9 9 9 8 9 8 8 8 8 7 8 8 8 8 9 9 9 10 11 11 11 11 12 12 12 11 11 11 11 10 10 9 9 9 10 10 9 10 10 10 9 9 9 9 9 9 10 10 10 9 9 8 7 7 6 6 6 6 6 7
10 10 10 11 11 10 10 10 9 9 9 9 9 8 8 8 8 8 8 8 8 8 8 8 9 9 9 9 9 9 9 9 9 9 8 8 8 8 8 9 9 9 9 9 10 10 11 11 11 11 10 10 10 10 10 10 10 10 10 10 10 11 11 11 10 10 10 10 9 9 8 8 9 8 8 8 9 8 9 9 8 8 8 8 9 9 10 10 10 10 10 9 9 8 7 6 6
14 13 13 13 12 12 12 10 10 9 9 8 7 7 7 7 7 8 8 8 8 8 8 8 8 8 8 7 7 7 7 7 7 7 7 7 8 9 9 10 10 11 12 13 13 14 14 13 13 13 12 12 12 12 12 11 11 11 11 11 10 11 12 12 13 13 13 13 13 13 12 11 11 12 11 10 10 9 9 9 9 8 8 8 8 8 8 8 8 8 9 8 9 9 9 9 8
10 10 10 10 9 8 8 8 8 7 7 7 8 8 8 8 8 8 7 7 7 6 6 5 5 5 6 6 7 7 8 8 9 9 10 10 11 12 12 13 13 13 13 13 13 13 13 14 14 15 15 16 16 16 15 15 15 15 14 14 13 12 11 12 12 12 12 12 12 13 12 12 12 13 13 13 12 12 12 11 11 11 10 10 10 10 9 9 8 8 9 8 7 6 6 8 7
7 7 8 8 8 8 8 8 8 8 8 8 8 8 7 6 6 5 5 5 5 6 6 7 7 7 8 8 8 8 9 9 10 10 11 12 12 13 13 13 13 13 13 14 14 15 16 16 16 16 16 16 15 15 15 15 14 14 14 13 13 12 11 11 10 10 10 10 10 10 10 10 10 11 11 11 11 12 12 12 12 12 12 12 11 12 11 11 10 10 10 11 10 8 7 7 7
9 8 8 7 7 6 6 6 5 6 6 6 6 6 6 6 6 7 7 8 8 8 8 7 7 7 7 8 8 9 10 11 11 12 13 13 14 14 14 15 16 16 17 17 17 16 16 15 14 13 13 12 12 12 11 11 11 10 11 10 10 10 10 10 10 10 10 10 10 10 10 10 10 10 10 11 11 11 11 11 12 12 12 12 12 12 12 13 13 11 11 12 12 12 10 9 9
5 5 5 4 4 4 4 5 6 8 8 8 9 8 8 8 8 8 7 7 7 6 6 7 8 9 10 11 12 13 14 15 16 16 16 16 16 17 18 18 18 18 17 16 15 14 13 12 11 10 10 9 9 8 8 8 8 8 8 8 8 8 9 9 9 9 9 9 10 10 10 10 10 11 11 11 11 11 11 11 12 12 12 12 12 13 13 13 14 14 13 13 12 13 13 12 10
4 4 6 7 7 8 9 10 10 11 10 9 8 7 7 7 6 7 7 7 8 9 10 12 13 14 15 17 18 19 19 19 19 19 18 19 19 18 18 17 16 14 13 11 10 9 7 6 6 6 6 6 6 7 7 7 7 8 8 8 9 9 10 10 11 11 11 11 11 12 11 12 11 11 11 11 11 10 10 10 10 10 10 10 10 10 10 11 11 12 12 13 13 13 14 15 14
10 11 12 12 11 11 10 9 8 8 7 7 7 7 8 9 9 10 11 12 13 15 17 18 20 21 22 22 22 21 20 19 18 18 18 17 16 14 13 11 10 9 8 7 7 7 7 7 7 8 8 8 8 9 9 9 9 10 10 10 11 12 12 12 12 12 12 12 12 12 12 12 12 12 12 12 12 11 11 11 10 10 9 9 8 8 8 8 8 8 8 9 9 10 10 12 14
12 11 10 10 9 8 8 8 8 8 9 10 10 11 12 13 14 14 15 17 20 22 23 24 24 24 23 21 20 19 18 17 16 15 14 12 11 9 8 7 7 7 8 8 8 8 9 9 10 11 11 12 13 14 14 14 15 16 16 16 16 16 16 15 15 15 15 15 15 15 15 14 14 14 14 13 13 13 12 12 12 11 11 11 11 10 10 10 9 8 8 7 7 7 7 7 9
9 9 9 9 9 10 11 11 11 12 13 13 13 14 15 15 17 18 20 22 23 23 23 22 20 20 19 18 17 16 15 14 12 11 10 9 9 9 10 11 12 13 13 14 15 16 17 18 19 20 20 21 21 20 19 19 18 18 17 16 15 14 14 14 14 14 14 14 14 15 15 15 15 15 16 16 16 17 16 16 16 16 16 15 15 15 15 14 14 13 12 11 9 8 8 7 7
10 10 10 10 11 12 12 12 12 14 14 15 15 16 18 19 19 19 20 20 18 17 16 15 15 15 15 14 14 13 12 11 10 11 11 12 14 16 17 18 19 19 19 19 20 20 19 19 18 16 15 14 13 12 11 10 10 9 8 8 8 8 8 9 9 9 10 11 11 11 11 12 13 13 14 15 16 17 17 17 17 17 16 16 16 16 17 17 17 17 16 16 14 12 11 10 10
10 9 9 9 10 11 12 12 13 14 15 16 16 17 18 16 14 14 14 13 11 11 11 11 11 11 11 10 10 10 10 11 12 12 13 15 15 16 15 14 13 12 12 11 9 9 8 7 6 5 5 4 4 4 4 4 4 4 4 4 5 6 6 7 7 8 9 9 9 9 9 9 9 9 9 10 10 11 12 13 14 15 15 15 15 14 13 13 13 13 13 14 14 14 12 11 11
8 9 9 9 10 10 11 12 13 13 15 15 13 13 14 10 10 11 10 9 9 8 8 7 8 8 8 9 9 9 9 10 10 10 10 10 9 8 6 5 5 4 4 4 3 3 3 3 3 3 3 3 4 4 3 3 3 3 4 4 5 6 6 7 6 7 7 7 8 8 8 8 8 8 7 7 7 7 8 9 10 12 13 15 16 16 14 13 11 10 10 10 11 11 11 11 10
9 10 9 9 11 11 12 11 11 12 12 11 9 10 10 9 9 10 9 9 8 7 7 7 7 7 7 7 8 7 7 6 6 5 5 4 3 3 3 3 4 4 4 4 4 4 4 4 4 4 4 4 4 4 4 4 3 4 4 4 5 6 6 7 7 8 8 8 8 8 8 9 9 9 8 8 7 7 8 8 8 8 9 12 16 18 19 19 18 17 16 15 14 13 13 13 12
9 9 9 10 11 11 11 10 10 10 9 8 8 7 9 10 9 9 10 9 8 8 9 9 8 8 7 6 6 5 5 4 4 4 4 4 4 4 4 4 4 3 3 3 3 3 3 2 2 2 2 3 3 3 4 4 5 5 5 5 6 6 6 7 8 8 9 9 9 10 10 10 10 10 10 9 8 8 9 8 7 7 9 13 16 19 21 22 22 22 22 22 22 22 21 20 20
9 9 10 10 10 10 10 9 8 8 8 8 8 6 8 11 8 7 9 9 8 8 9 9 8 8 7 6 6 5 4 5 4 5 4 4 4 4 4 3 2 2 2 2 2 1 2 2 2 2 3 3 4 4 5 5 6 6 7 7 7 6 6 6 7 7 8 10 10 11 11 11 11 11 10 9 8 8 8 7 7 8 12 15 18 20 21 21 21 21 22 22 23 24 25 25 25
9 9 9 9 10 9 9 9 9 9 9 8 8 6 7 10 8 6 10 10 8 8 8 8 8 8 7 6 6 6 5 5 5 5 4 3 3 3 3 2 2 2 2 2 2 2 3 4 4 5 5 5 5 5 6 6 7 7 7 8 7 7 7 6 6 6 7 8 10 11 12 12 11 10 9 8 7 7 7 7 7 10 15 18 21 21 20 19 19 19 19 20 21 21 23 23 24
9 9 8 9 9 8 9 9 8 9 9 8 8 7 6 10 8 6 10 10 8 9 8 7 8 7 7 7 7 6 6 5 4 4 3 3 3 3 3 3 3 3 3 4 4 4 5 5 6 6 6 6 6 6 6 7 7 8 8 9 9 9 8 7 6 6 6 7 9 11 12 12 11 11 10 8 6 6 6 6 9 13 18 21 21 20 19 18 18 18 18 18 18 18 18 19 19
9 8 8 8 8 8 9 9 8 9 9 8 8 7 7 10 8 6 10 9 7 10 8 7 8 8 7 7 7 6 5 4 4 4 3 3 3 3 4 4 4 4 5 5 5 6 6 6 7 7 7 7 7 7 7 7 7 7 8 9 10 10 9 9 8 7 7 7 8 10 12 13 13 12 10 7 6 6 6 7 11 17 20 21 20 18 18 17 17 18 17 17 16 16 15 15 15
8 9 9 9 9 9 8 8 8 9 9 8 7 7 8 10 7 7 10 9 7 8 9 8 7 7 6 5 5 5 4 4 4 3 3 3 3 4 4 4 4 5 5 5 5 6 6 7 7 7 7 8 8 8 7 8 8 8 8 9 9 10 10 10 10 8 8 7 7 10 12 14 14 13 11 8 6 6 6 9 14 19 22 21 18 17 17 19 20 22 22 22 21 19 18 17 15
10 10 8 8 8 8 7 7 8 8 9 8 7 7 7 9 8 6 10 11 6 5 8 8 8 7 4 2 3 3 3 4 3 3 4 4 4 4 4 4 4 4 4 5 5 5 6 6 6 7 7 8 8 8 8 8 8 7 8 8 8 9 10 10 10 9 8 7 8 10 12 14 14 13 11 7 6 5 6 12 18 21 22 19 16 18 21 25 28 29 29 29 29 28 26 24 22
10 8 7 8 7 6 7 7 7 7 8 9 7 6 6 9 9 5 9 12 6 2 5 6 7 7 4 3 3 2 3 4 3 4 4 4 3 3 4 4 4 4 4 4 4 4 5 5 5 6 7 8 8 8 8 8 7 7 7 7 8 9 9 9 9 9 8 7 8 10 12 14 14 13 10 6 5 5 8 14 20 22 20 17 18 23 29 31 31 29 29 29 29 29 29 28 28
8 7 8 7 6 7 7 7 6 5 7 8 7 6 5 9 10 4 6 12 7 3 4 4 4 5 4 5 3 2 4 4 3 4 4 4 3 3 3 3 4 4 4 5 5 5 5 5 5 6 7 8 9 8 9 8 7 7 6 6 7 8 9 9 9 8 8 7 8 10 12 13 13 12 8 6 5 6 11 17 21 22 18 17 23 30 31 28 25 23 23 24 25 25 25 26 26
8 7 8 7 7 7 6 6 6 5 6 6 6 5 5 11 10 1 5 11 7 3 3 3 3 3 4 4 2 2 4 4 4 4 4 4 4 3 4 4 5 5 5 6 6 5 6 6 5 6 7 8 8 9 9 8 7 7 6 7 7 8 9 9 8 8 8 8 8 10 13 13 13 11 7 5 5 7 13 18 22 20 16 21 30 31 25 21 20 20 21 22 22 22 22 23 23
8 7 7 7 7 7 6 6 6 6 5 5 7 3 6 14 8 0 7 9 3 3 4 3 4 5 7 6 5 5 5 5 5 5 6 6 6 6 6 7 7 7 7 7 7 6 7 6 6 7 7 7 8 9 9 8 7 7 6 7 7 8 9 8 8 8 8 8 9 11 13 13 13 10 6 5 6 9 15 20 22 18 18 29 32 26 20 20 20 22 23 23 22 21 20 20 20
7 7 6 6 6 5 6 5 4 6 4 5 7 1 6 18 9 1 6 4 2 6 4 3 5 7 9 9 8 7 7 8 8 7 8 8 8 9 8 9 9 8 8 8 8 8 7 7 8 7 6 7 8 9 9 8 8 7 7 7 7 8 9 8 7 7 8 8 9 11 12 13 12 9 6 5 7 11 17 22 21 17 23 33 29 21 20 20 21 23 25 25 23 21 19 18 18
7 7 6 6 5 5 6 5 5 7 3 4 6 0 10 21 9 1 3 1 5 7 4 5 6 7 10 10 9 8 8 9 8 8 8 8 9 9 9 10 10 9 9 8 8 8 8 8 8 7 7 8 8 8 8 8 8 7 6 7 7 8 8 8 7 7 8 8 9 11 12 12 11 8 6 6 8 13 18 23 20 18 28 34 25 19 19 18 20 23 24 25 23 20 19 18 18
6 7 6 5 6 4 4 4 5 5 2 5 4 2 15 21 5 -1 3 1 6 7 3 6 6 6 10 9 6 7 7 7 7 7 7 7 7 8 8 10 10 9 9 9 9 9 9 9 8 7 7 8 8 8 8 8 7 6 6 7 8 8 8 7 7 7 8 8 10 11 12 12 10 8 6 6 10 14 19 23 19 20 32 32 22 18 17 15 19 22 23 23 21 20 19 18 18
6 6 5 5 5 4 3 2 3 4 2 4 4 4 18 22 4 -0 4 4 7 6 2 3 5 6 8 6 5 5 5 6 6 6 7 6 6 7 9 10 9 8 9 9 10 10 9 9 8 8 8 7 7 7 8 8 6 6 6 7 8 8 7 7 7 7 8 9 10 10 11 11 10 8 6 7 11 15 21 23 18 23 34 29 19 16 14 15 18 20 22 21 19 19 19 18 19
Height
5808 5809 5810 5809 5809 5810 5810 5811 5812 5812 5812 5812 5813 5814 5814 5815 5815 5816 5816 5817 5818 5818 5818 5818 5817 5817 5817 5818 5819 5819 5819 5819 5819 5820 5819 5819 5818 5818 5818 5819 5819 5819 5819 5819 5819 5819 5819 5819 5819 5819 5819 5819 5819 5818 5818 5817 5817 5817 5817 5816 5816 5816 5816 5816 5815 5815 5814 5814 5814 5815 5814 5814 5813 5813 5813 5813 5813 5813 5813 5813 5814 5814 5814 5815 5815 5816 5817 5817 5817 5817 5816 5817 5818 5818 5819 5819 5819
5807 5808 5808 5808 5808 5809 5809 5810 5810 5810 5811 5811 5811 5813 5813 5813 5814 5814 5815 5815 5816 5816 5816 5816 5816 5816 5816 5816 5817 5817 5817 5817 5818 5818 5817 5817 5816 5816 5815 5816 5816 5816 5817 5817 5817 5817 5816 5817 5817 5817 5816 5816 5816 5815 5815 5814 5814 5814 5813 5813 5813 5813 5813 5812 5811 5811 5811 5811 5811 5811 5811 5811 5810 5810 5810 5810 5810 5810 5810 5810 5810 5811 5811 5812 5812 5813 5813 5814 5814 5814 5814 5814 5815 5815 5816 5816 5816
5806 5807 5807 5807 5807 5808 5808 5809 5809 5809 5809 5810 5810 5811 5812 5812 5812 5812 5813 5814 5815 5815 5814 5814 5814 5814 5815 5815 5815 5816 5816 5816 5816 5816 5815 5815 5815 5814 5813 5812 5812 5813 5814 5815 5814 5814 5814 5814 5814 5814 5814 5813 5813 5813 5812 5812 5811 5810 5810 5810 5810 5810 5810 5809 5808 5808 5807 5807 5807 5807 5807 5808 5807 5807 5807 5806 5806 5807 5807 5807 5807 5807 5808 5808 5809 5809 5810 5811 5811 5812 5811 5810 5811 5812 5812 5813 5813
5805 5805 5806 5806 5806 5806 5807 5807 5807 5808 5808 5809 5809 5810 5810 5810 5811 5811 5812 5813 5813 5813 5813 5813 5813 5813 5814 5814 5814 5814 5814 5814 5814 5814 5813 5813 5813 5812 5811 5810 5810 5811 5812 5812 5812 5812 5811 5811 5811 5811 5811 5811 5810 5810 5809 5809 5808 5807 5807 5807 5807 5807 5807 5806 5805 5805 5804 5804 5804 5804 5804 5804 5804 5804 5803 5803 5803 5803 5803 5804 5804 5804 5804 5805 5805 5806 5806 5807 5808 5808 5808 5807 5807 5808 5809 5809 5809
5804 5805 5805 5805 5805 5805 5805 5806 5806 5807 5808 5808 5808 5809 5809 5809 5809 5810 5811 5812 5812 5812 5812 5812 5812 5812 5812 5813 5813 5813 5813 5813 5812 5812 5812 5811 5811 5810 5810 5809 5808 5809 5810 5810 5810 5809 5809 5809 5808 5809 5809 5808 5808 5807 5807 5806 5805 5805 5804 5804 5804 5804 5803 5803 5802 5802 5801 5801 5801 5800 5800 5800 5800 5800 5800 5799 5799 5799 5800 5800 5800 5800 5801 5801 5801 5802 5802 5803 5804 5804 5805 5804 5804 5805 5805 5805 5806
5804 5804 5804 5804 5804 5804 5805 5805 5806 5806 5807 5807 5807 5807 5808 5808 5809 5809 5810 5811 5811 5811 5811 5811 5811 5811 5811 5811 5812 5811 5811 5811 5811 5810 5809 5809 5809 5809 5808 5808 5807 5807 5807 5807 5807 5807 5807 5806 5806 5806 5807 5806 5805 5805 5804 5803 5803 5802 5801 5801 5800 5800 5800 5800 5799 5798 5798 5798 5797 5797 5796 5796 5796 5796 5796 5795 5795 5795 5795 5796 5796 5796 5796 5797 5797 5797 5798 5799 5799 5800 5800 5800 5800 5800 5801 5802 5802
5803 5803 5804 5804 5804 5804 5804 5804 5805 5805 5805 5806 5806 5807 5807 5807 5808 5808 5809 5809 5809 5809 5809 5810 5809 5809 5810 5810 5810 5809 5809 5809 5809 5808 5807 5807 5807 5807 5806 5805 5804 5804 5804 5804 5804 5804 5804 5804 5803 5804 5803 5803 5802 5802 5801 5800 5800 5799 5798 5797 5797 5797 5797 5797 5796 5796 5795 5794 5794 5794 5793 5793 5792 5792 5792 5791 5791 5791 5791 5791 5792 5792 5792 5792 5792 5793 5793 5794 5795 5795 5796 5796 5796 5796 5797 5797 5798
5803 5803 5803 5803 5803 5803 5803 5803 5803 5804 5804 5805 5805 5806 5806 5806 5806 5807 5807 5807 5807 5807 5807 5807 5807 5807 5808 5808 5808 5807 5807 5807 5806 5805 5805 5805 5805 5804 5804 5803 5802 5801 5801 5801 5801 5801 5801 5801 5800 5801 5800 5799 5799 5799 5798 5797 5796 5795 5795 5794 5794 5794 5793 5793 5793 5792 5791 5790 5790 5790 5789 5789 5788 5788 5788 5787 5786 5786 5786 5787 5787 5787 5788 5788 5788 5788 5788 5789 5790 5790 5791 5791 5792 5792 5792 5793 5793
5802 5801 5801 5802 5802 5801 5801 5801 5803 5803 5803 5804 5804 5804 5805 5805 5805 5805 5805 5806 5806 5805 5805 5804 5805 5805 5806 5806 5805 5804 5804 5804 5803 5803 5802 5802 5802 5801 5801 5801 5799 5798 5798 5798 5798 5798 5798 5798 5798 5797 5797 5796 5796 5795 5794 5793 5793 5792 5791 5791 5790 5790 5789 5789 5788 5788 5787 5786 5785 5784 5784 5784 5784 5784 5783 5782 5782 5781 5781 5781 5782 5782 5783 5783 5783 5783 5783 5784 5785 5785 5786 5786 5787 5787 5788 5788 5789
5800 5800 5799 5800 5799 5799 5799 5801 5802 5802 5802 5802 5803 5803 5803 5803 5804 5804 5804 5804 5804 5803 5802 5802 5803 5803 5804 5804 5803 5802 5801 5801 5800 5799 5799 5799 5799 5799 5799 5799 5798 5797 5796 5795 5795 5794 5794 5795 5794 5794 5793 5792 5792 5791 5791 5790 5789 5788 5788 5787 5786 5785 5784 5783 5782 5782 5781 5780 5779 5779 5779 5779 5779 5778 5778 5777 5777 5777 5777 5777 5777 5777 5778 5778 5778 5778 5779 5779 5779 5780 5781 5781 5782 5782 5783 5783 5784
5798 5798 5798 5798 5798 5797 5798 5800 5800 5801 5801 5802 5802 5802 5802 5802 5802 5802 5802 5802 5801 5801 5800 5800 5800 5801 5801 5801 5800 5799 5799 5798 5797 5797 5796 5797 5797 5797 5796 5796 5796 5795 5794 5793 5792 5792 5792 5791 5791 5790 5789 5788 5788 5787 5786 5786 5785 5785 5784 5783 5781 5780 5778 5777 5777 5776 5776 5775 5774 5774 5773 5773 5773 5773 5773 5772 5772 5772 5772 5772 5772 5772 5773 5773 5774 5774 5774 5774 5774 5775 5776 5776 5777 5777 5777 5778 5779
5796 5796 5796 5796 5796 5795 5797 5798 5799 5799 5800 5801 5800 5800 5800 5800 5800 5800 5799 5799 5799 5799 5799 5798 5798 5798 5798 5798 5798 5797 5796 5795 5794 5794 5794 5794 5794 5794 5793 5793 5793 5792 5791 5791 5790 5789 5788 5788 5787 5786 5786 5784 5783 5782 5782 5781 5781 5780 5778 5777 5775 5774 5773 5772 5772 5771 5770 5770 5769 5769 5768 5768 5768 5767 5767 5767 5767 5767 5767 5767 5767 5767 5767 5768 5768 5768 5768 5769 5769 5769 5770 5771 5771 5772 5772 5772 5773
5795 5795 5795 5795 5794 5794 5795 5796 5797 5797 5798 5799 5799 5798 5798 5797 5797 5797 5797 5797 5797 5797 5796 5796 5796 5796 5796 5795 5794 5794 5793 5792 5792 5791 5791 5791 5790 5790 5790 5790 5789 5788 5788 5786 5785 5785 5784 5783 5782 5782 5781 5779 5778 5777 5776 5775 5775 5774 5772 5770 5770 5768 5767 5767 5766 5766 5765 5764 5764 5763 5763 5763 5762 5762 5762 5762 5762 5761 5761 5761 5761 5762 5762 5762 5762 5762 5762 5763 5763 5763 5763 5764 5764 5765 5766 5766 5767
5794 5794 5794 5794 5793 5793 5793 5795 5795 5796 5796 5797 5797 5797 5796 5795 5795 5795 5795 5795 5794 5794 5794 5794 5793 5793 5792 5791 5791 5790 5790 5790 5789 5789 5788 5788 5787 5787 5786 5785 5785 5784 5782 5781 5780 5780 5779 5778 5777 5776 5775 5773 5772 5771 5770 5770 5769 5767 5766 5765 5765 5763 5762 5762 5761 5761 5760 5760 5759 5759 5759 5758 5757 5757 5757 5757 5757 5757 5757 5756 5756 5757 5756 5756 5756 5756 5756 5757 5757 5757 5757 5757 5758 5758 5759 5760 5760
5794 5793 5793 5793 5792 5792 5792 5793 5794 5795 5795 5795 5795 5794 5794 5794 5794 5793 5793 5792 5792 5791 5791 5791 5790 5790 5789 5788 5787 5787 5786 5786 5786 5785 5785 5784 5783 5782 5781 5781 5780 5779 5777 5776 5775 5775 5774 5773 5773 5771 5770 5768 5767 5766 5765 5765 5764 5762 5761 5761 5759 5758 5758 5757 5757 5757 5756 5756 5755 5754 5754 5754 5753 5753 5753 5752 5752 5752 5752 5751 5751 5751 5750 5750 5750 5749 5749 5750 5750 5750 5750 5751 5751 5751 5752 5753 5753
5793 5793 5792 5792 5792 5792 5792 5792 5793 5794 5793 5793 5792 5792 5791 5791 5791 5791 5790 5790 5789 5788 5788 5787 5787 5787 5786 5785 5784 5783 5783 5782 5782 5782 5781 5780 5779 5778 5777 5776 5775 5774 5772 5771 5771 5770 5769 5768 5768 5767 5765 5763 5762 5762 5761 5760 5759 5758 5757 5755 5754 5753 5753 5752 5752 5752 5751 5751 5750 5749 5748 5748 5748 5747 5747 5746 5746 5746 5745 5745 5745 5744 5743 5743 5743 5742 5742 5742 5743 5743 5743 5744 5744 5744 5744 5745 5745
5792 5791 5791 5791 5791 5791 5791 5790 5790 5791 5791 5791 5790 5790 5789 5788 5788 5788 5787 5787 5786 5786 5785 5784 5784 5783 5783 5782 5781 5780 5780 5779 5778 5777 5776 5775 5774 5773 5772 5771 5770 5769 5768 5767 5766 5765 5765 5764 5763 5762 5760 5759 5758 5757 5756 5755 5754 5753 5752 5750 5749 5748 5747 5747 5746 5746 5745 5745 5744 5743 5742 5741 5741 5740 5740 5739 5739 5738 5738 5737 5737 5737 5736 5736 5736 5735 5735 5734 5735 5735 5735 5736 5736 5736 5736 5737 5737
5791 5789 5788 5789 5790 5790 5789 5788 5788 5788 5788 5788 5788 5787 5786 5785 5785 5785 5784 5784 5783 5782 5781 5780 5780 5780 5779 5778 5778 5777 5776 5775 5774 5773 5771 5770 5769 5768 5767 5766 5765 5764 5763 5762 5761 5760 5760 5759 5759 5758 5756 5755 5753 5752 5751 5750 5749 5748 5746 5745 5744 5742 5741 5741 5740 5739 5739 5738 5737 5736 5735 5735 5734 5733 5732 5732 5731 5730 5730 5729 5729 5728 5728 5728 5728 5728 5727 5727 5727 5727 5727 5728 5728 5728 5728 5729 5729
5789 5787 5786 5787 5788 5788 5787 5786 5785 5785 5784 5784 5784 5784 5783 5783 5782 5782 5781 5780 5779 5778 5777 5777 5777 5776 5775 5774 5774 5773 5773 5772 5770 5769 5767 5766 5764 5763 5762 5760 5760 5759 5758 5757 5756 5755 5755 5754 5753 5752 5751 5750 5748 5747 5745 5744 5743 5742 5740 5739 5737 5736 5735 5734 5733 5732 5732 5731 5730 5729 5728 5727 5726 5725 5725 5724 5723 5723 5722 5722 5721 5720 5720 5720 5720 5720 5720 5720 5720 5720 5720 5720 5720 5721 5721 5721 5721
5787 5785 5785 5786 5786 5785 5785 5784 5783 5782 5781 5780 5780 5780 5780 5779 5779 5778 5778 5777 5776 5775 5774 5773 5773 5772 5771 5770 5769 5768 5768 5767 5765 5764 5763 5761 5760 5758 5757 5755 5754 5753 5752 5751 5750 5749 5748 5747 5746 5745 5745 5743 5742 5741 5740 5738 5737 5736 5734 5732 5731 5729 5728 5727 5726 5726 5725 5724 5723 5722 5721 5720 5719 5718 5718 5717 5716 5715 5715 5714 5713 5713 5713 5712 5712 5712 5712 5712 5712 5712 5712 5712 5713 5713 5713 5713 5713
5784 5784 5784 5784 5784 5783 5782 5781 5780 5779 5778 5777 5777 5776 5776 5776 5775 5775 5774 5773 5772 5771 5770 5770 5769 5768 5767 5765 5764 5763 5762 5761 5760 5759 5758 5756 5755 5753 5752 5751 5749 5748 5747 5745 5744 5743 5742 5741 5740 5739 5738 5737 5735 5734 5733 5732 5730 5729 5727 5726 5724 5723 5722 5721 5720 5719 5718 5717 5715 5714 5713 5712 5711 5711 5710 5709 5709 5708 5707 5707 5706 5705 5705 5704 5704 5704 5704 5704 5704 5704 5704 5704 5704 5705 5705 5705 5705
5782 5781 5782 5782 5781 5780 5779 5779 5778 5776 5775 5774 5774 5773 5772 5772 5771 5770 5770 5769 5769 5768 5767 5766 5764 5763 5762 5760 5759 5758 5757 5756 5755 5754 5753 5752 5751 5749 5748 5746 5744 5743 5741 5740 5739 5737 5736 5735 5733 5732 5731 5730 5729 5728 5726 5725 5724 5722 5721 5719 5718 5716 5715 5714 5713 5711 5710 5709 5708 5707 5706 5704 5703 5703 5702 5701 5700 5700 5699 5698 5697 5697 5696 5696 5696 5695 5695 5695 5695 5695 5695 5695 5695 5696 5696 5696 5696
5780 5779 5779 5779 5778 5777 5776 5776 5775 5774 5773 5772 5771 5770 5768 5768 5767 5767 5766 5766 5765 5764 5763 5761 5759 5758 5757 5756 5755 5754 5753 5752 5751 5750 5749 5747 5746 5745 5743 5741 5740 5738 5736 5734 5733 5731 5730 5728 5727 5726 5725 5724 5723 5722 5721 5719 5718 5716 5714 5713 5711 5710 5708 5707 5706 5704 5703 5701 5700 5699 5698 5696 5695 5694 5693 5692 5692 5691 5690 5690 5689 5688 5688 5687 5686 5686 5686 5686 5685 5685 5685 5685 5686 5686 5686 5686 5687
5777 5776 5776 5775 5775 5774 5774 5773 5772 5772 5770 5769 5768 5767 5766 5765 5764 5763 5762 5762 5761 5759 5758 5756 5755 5754 5753 5751 5750 5749 5748 5747 5746 5744 5743 5742 5740 5738 5737 5735 5733 5732 5730 5728 5727 5725 5724 5722 5721 5719 5718 5717 5716 5715 5714 5712 5711 5709 5707 5706 5704 5702 5701 5700 5698 5697 5695 5693 5692 5690 5689 5688 5687 5686 5685 5683 5682 5682 5681 5680 5679 5678 5678 5677 5677 5676 5676 5675 5675 5675 5675 5675 5675 5675 5675 5676 5676
5775 5774 5773 5773 5772 5772 5771 5771 5770 5769 5768 5767 5766 5765 5764 5763 5761 5760 5758 5757 5756 5755 5753 5752 5751 5749 5748 5747 5746 5744 5743 5741 5740 5738 5737 5735 5734 5732 5730 5728 5727 5725 5723 5722 5720 5718 5717 5715 5713 5712 5710 5709 5707 5706 5705 5703 5702 5701 5699 5697 5695 5694 5692 5691 5689 5688 5686 5685 5683 5682 5680 5679 5678 5676 5675 5674 5673 5672 5671 5670 5669 5668 5668 5667 5667 5666 5666 5666 5665 5665 5665 5665 5665 5665 5665 5665 5666
5772 5772 5771 5771 5770 5769 5768 5768 5767 5766 5765 5764 5763 5762 5761 5759 5758 5756 5755 5754 5752 5751 5750 5748 5747 5745 5744 5742 5741 5739 5738 5736 5735 5733 5731 5730 5728 5726 5724 5722 5720 5718 5717 5715 5713 5711 5709 5707 5706 5704 5702 5701 5699 5697 5696 5694 5693 5691 5690 5688 5687 5685 5684 5682 5681 5679 5678 5676 5674 5673 5672 5670 5669 5667 5666 5665 5664 5663 5662 5661 5659 5659 5658 5657 5657 5656 5656 5656 5656 5655 5655 5655 5655 5654 5654 5654 5655
5771 5770 5769 5768 5767 5766 5766 5765 5764 5763 5762 5762 5760 5759 5757 5756 5754 5753 5751 5750 5749 5748 5746 5745 5743 5742 5740 5738 5736 5735 5733 5731 5730 5728 5726 5725 5723 5721 5719 5717 5715 5713 5710 5708 5706 5704 5702 5700 5698 5697 5695 5693 5692 5690 5688 5687 5685 5683 5681 5680 5678 5676 5675 5673 5672 5670 5669 5667 5665 5664 5662 5661 5660 5658 5657 5656 5655 5653 5652 5651 5650 5649 5648 5647 5647 5646 5646 5646 5646 5645 5645 5645 5645 5645 5644 5644 5644
5768 5767 5766 5765 5765 5764 5763 5762 5761 5760 5759 5758 5757 5755 5754 5752 5751 5749 5748 5747 5745 5744 5742 5741 5739 5738 5736 5734 5732 5731 5729 5727 5725 5724 5722 5720 5718 5716 5714 5711 5709 5707 5705 5702 5700 5698 5696 5694 5692 5690 5688 5686 5685 5683 5681 5679 5678 5676 5674 5672 5670 5668 5666 5665 5663 5661 5660 5658 5656 5655 5653 5652 5650 5649 5647 5646 5645 5643 5642 5641 5639 5638 5637 5636 5636 5635 5635 5635 5635 5634 5634 5635 5635 5635 5634 5634 5633
5766 5765 5764 5763 5762 5761 5760 5760 5758 5757 5756 5755 5753 5751 5750 5749 5747 5745 5744 5743 5742 5740 5739 5737 5735 5734 5732 5730 5728 5726 5724 5722 5721 5719 5716 5714 5712 5710 5708 5706 5704 5701 5699 5697 5694 5692 5690 5688 5686 5683 5681 5679 5677 5675 5674 5672 5670 5668 5666 5664 5663 5661 5659 5657 5655 5653 5651 5649 5647 5646 5644 5642 5641 5639 5637 5636 5635 5633 5631 5630 5629 5627 5626 5625 5624 5624 5623 5623 5623 5623 5623 5623 5623 5623 5623 5623 5623
5763 5762 5761 5760 5760 5759 5758 5757 5755 5754 5752 5751 5749 5747 5746 5744 5743 5741 5740 5739 5737 5736 5734 5733 5731 5729 5727 5725 5723 5721 5719 5717 5715 5712 5710 5708 5706 5704 5702 5699 5697 5695 5693 5691 5688 5686 5684 5682 5679 5677 5675 5673 5671 5669 5667 5664 5662 5661 5659 5657 5655 5653 5651 5649 5647 5645 5643 5641 5639 5637 5636 5633 5631 5629 5628 5626 5624 5623 5621 5619 5618 5617 5616 5614 5613 5612 5611 5611 5611 5611 5610 5611 5611 5611 5611 5611 5611
5760 5759 5759 5758 5757 5756 5755 5753 5752 5750 5749 5747 5746 5744 5742 5740 5739 5737 5736 5734 5732 5731 5729 5727 5726 5724 5722 5720 5717 5715 5713 5710 5708 5706 5703 5701 5699 5697 5694 5692 5690 5688 5686 5684 5682 5680 5678 5676 5673 5671 5669 5667 5665 5662 5660 5658 5656 5653 5651 5649 5647 5645 5643 5641 5639 5636 5634 5632 5631 5629 5627 5625 5622 5621 5619 5617 5615 5613 5611 5609 5608 5607 5605 5603 5602 5600 5599 5599 5599 5598 5598 5598 5598 5598 5598 5598 5598
5758 5757 5756 5755 5754 5753 5752 5750 5749 5747 5745 5744 5742 5741 5739 5737 5735 5733 5731 5730 5728 5726 5724 5722 5720 5718 5716 5713 5711 5709 5706 5704 5701 5699 5697 5695 5692 5690 5688 5686 5683 5681 5679 5677 5675 5673 5671 5669 5667 5665 5663 5661 5659 5656 5654 5651 5649 5647 5644 5642 5640 5637 5635 5633 5630 5628 5626 5623 5622 5620 5618 5616 5614 5611 5610 5608 5606 5603 5601 5599 5598 5596 5594 5592 5590 5589 5588 5587 5587 5586 5585 5585 5585 5585 5585 5585 5585
5755 5754 5753 5752 5751 5749 5748 5747 5746 5744 5742 5741 5739 5737 5735 5733 5731 5729 5728 5726 5724 5722 5720 5717 5715 5713 5710 5708 5705 5703 5700 5698 5696 5693 5691 5689 5686 5684 5682 5680 5678 5676 5673 5671 5669 5667 5665 5663 5661 5659 5657 5654 5652 5650 5648 5645 5643 5640 5638 5635 5633 5630 5628 5626 5623 5620 5618 5615 5613 5611 5609 5607 5604 5602 5600 5598 5596 5593 5592 5590 5588 5586 5584 5582 5579 5577 5576 5575 5575 5575 5573 5572 5572 5572 5572 5572 5572
5752 5751 5750 5748 5747 5746 5745 5743 5742 5741 5739 5737 5735 5733 5731 5729 5727 5726 5724 5722 5720 5718 5715 5713 5710 5707 5705 5702 5700 5697 5695 5692 5690 5688 5685 5683 5681 5679 5676 5674 5672 5670 5668 5666 5664 5662 5659 5657 5655 5653 5651 5649 5647 5645 5642 5639 5637 5634 5632 5629 5626 5624 5621 5619 5616 5613 5610 5608 5605 5603 5600 5598 5595 5593 5590 5588 5586 5583 5581 5580 5577 5575 5573 5571 5568 5566 5565 5563 5563 5562 5561 5560 5559 5559 5559 5558 5559
5749 5748 5747 5746 5744 5743 5742 5740 5739 5737 5735 5733 5732 5729 5727 5725 5723 5721 5720 5718 5715 5713 5710 5707 5705 5702 5700 5697 5695 5692 5689 5687 5684 5682 5680 5678 5675 5673 5671 5669 5667 5665 5663 5661 5659 5657 5655 5653 5650 5648 5646 5644 5642 5639 5637 5633 5630 5628 5625 5622 5619 5616 5614 5611 5609 5606 5603 5600 5597 5595 5592 5589 5587 5584 5581 5578 5576 5573 5571 5569 5567 5565 5562 5560 5557 5555 5553 5551 5551 5549 5548 5548 5547 5546 5544 5544 5546
5746 5745 5744 5742 5741 5740 5738 5737 5735 5734 5732 5729 5728 5725 5723 5721 5719 5717 5715 5712 5710 5707 5705 5702 5699 5697 5694 5691 5689 5686 5684 5681 5679 5677 5675 5673 5671 5669 5667 5665 5663 5661 5659 5657 5655 5652 5650 5648 5645 5643 5641 5638 5636 5633 5630 5627 5624 5621 5618 5615 5611 5608 5605 5602 5600 5597 5594 5591 5588 5586 5583 5580 5577 5574 5571 5569 5566 5563 5561 5559 5557 5554 5552 5549 5546 5544 5541 5539 5538 5536 5535 5535 5534 5533 5531 5529 5530
5744 5742 5741 5740 5738 5737 5735 5734 5732 5730 5728 5725 5723 5721 5719 5716 5714 5712 5709 5707 5704 5702 5700 5697 5694 5691 5689 5686 5684 5681 5679 5677 5675 5673 5671 5669 5667 5665 5663 5661 5659 5657 5655 5653 5650 5648 5645 5642 5640 5637 5635 5632 5630 5627 5624 5620 5617 5614 5611 5608 5604 5600 5597 5594 5591 5588 5585 5582 5579 5576 5573 5571 5568 5564 5562 5559 5556 5553 5551 5549 5546 5544 5541 5538 5535 5532 5530 5527 5525 5523 5522 5522 5521 5521 5519 5515 5514
5741 5740 5739 5737 5736 5734 5732 5730 5728 5726 5724 5721 5719 5717 5714 5712 5710 5707 5705 5702 5700 5698 5695 5692 5690 5687 5684 5682 5680 5678 5676 5674 5672 5670 5668 5666 5664 5662 5660 5657 5655 5653 5651 5648 5646 5643 5640 5637 5634 5632 5629 5626 5624 5621 5617 5614 5611 5608 5605 5602 5598 5594 5591 5587 5583 5580 5577 5573 5570 5567 5563 5561 5557 5554 5551 5548 5545 5542 5540 5538 5535 5532 5529 5527 5524 5521 5517 5514 5512 5509 5508 5508 5507 5506 5505 5503 5500
5739 5738 5736 5735 5733 5731 5729 5727 5725 5723 5720 5718 5715 5713 5710 5708 5706 5703 5701 5698 5696 5693 5691 5688 5686 5683 5680 5678 5676 5674 5672 5670 5668 5666 5664 5662 5660 5658 5656 5653 5651 5648 5646 5643 5641 5638 5635 5632 5629 5626 5623 5620 5618 5614 5611 5608 5605 5602 5599 5595 5592 5588 5584 5581 5577 5573 5570 5565 5562 5558 5554 5551 5547 5543 5540 5537 5534 5531 5528 5526 5523 5520 5517 5514 5511 5508 5504 5501 5498 5495 5492 5492 5493 5491 5490 5488 5485
5737 5736 5734 5732 5731 5728 5726 5724 5722 5719 5717 5714 5712 5709 5707 5705 5703 5700 5698 5695 5692 5690 5687 5685 5682 5680 5677 5675 5673 5670 5668 5666 5664 5662 5660 5658 5656 5654 5651 5649 5646 5644 5641 5638 5636 5633 5630 5627 5624 5621 5618 5615 5612 5609 5606 5602 5599 5596 5592 5589 5585 5581 5577 5573 5569 5565 5561 5557 5553 5549 5545 5541 5537 5533 5529 5526 5523 5519 5516 5514 5511 5508 5504 5501 5498 5495 5491 5487 5484 5480 5477 5475 5476 5476 5475 5473 5469
5735 5733 5731 5729 5727 5725 5723 5721 5718 5716 5714 5711 5709 5706 5704 5702 5700 5697 5695 5692 5689 5687 5684 5681 5679 5677 5674 5672 5669 5667 5665 5663 5661 5658 5656 5654 5652 5649 5647 5644 5642 5639 5637 5634 5631 5629 5626 5623 5619 5616 5613 5610 5607 5603 5600 5597 5593 5589 5586 5582 5577 5573 5569 5564 5560 5556 5551 5548 5543 5539 5535 5531 5528 5524 5519 5516 5512 5509 5505 5503 5499 5496 5493 5488 5485 5482 5478 5474 5470 5465 5462 5460 5459 5458 5458 5458 5454
5731 5730 5728 5726 5724 5722 5720 5717 5715 5713 5711 5708 5706 5704 5701 5699 5697 5694 5692 5689 5687 5684 5681 5679 5676 5674 5671 5668 5666 5664 5662 5660 5657 5655 5653 5650 5648 5645 5643 5641 5638 5635 5633 5630 5627 5624 5621 5618 5615 5611 5608 5605 5601 5598 5594 5590 5587 5583 5579 5575 5571 5566 5562 5557 5553 5548 5544 5539 5535 5530 5526 5521 5518 5514 5509 5505 5502 5498 5494 5491 5488 5484 5480 5476 5472 5469 5464 5459 5456 5451 5447 5445 5444 5441 5440 5441 5439
5728 5726 5725 5723 5721 5719 5717 5714 5713 5710 5708 5706 5704 5701 5699 5696 5694 5692 5690 5687 5684 5682 5679 5676 5673 5671 5668 5666 5663 5661 5659 5656 5654 5652 5649 5647 5644 5642 5639 5637 5634 5632 5629 5626 5623 5620 5616 5613 5610 5606 5602 5599 5595 5591 5587 5584 5580 5576 5572 5568 5564 5560 5556 5551 5547 5542 5537 5533 5528 5522 5518 5513 5508 5504 5499 5495 5491 5486 5482 5479 5475 5471 5467 5462 5457 5454 5449 5444 5440 5436 5432 5429 5427 5426 5423 5423 5423
5725 5724 5722 5720 5718 5716 5714 5712 5710 5708 5706 5704 5701 5699 5697 5694 5691 5689 5687 5684 5682 5679 5676 5673 5671 5668 5665 5663 5661 5658 5656 5654 5651 5649 5646 5644 5641 5639 5636 5633 5630 5627 5624 5621 5618 5614 5611 5607 5603 5600 5596 5592 5588 5584 5580 5577 5573 5569 5565 5561 5557 5553 5549 5544 5540 5535 5530 5526 5520 5515 5510 5505 5500 5495 5490 5486 5481 5476 5471 5467 5463 5458 5454 5448 5442 5438 5433 5428 5424 5420 5416 5413 5410 5409 5406 5405 5405
5723 5722 5720 5718 5716 5713 5711 5709 5707 5705 5703 5701 5699 5696 5694 5692 5689 5687 5684 5682 5679 5676 5673 5671 5668 5665 5663 5660 5658 5656 5653 5651 5648 5646 5643 5641 5638 5635 5632 5629 5625 5622 5619 5615 5612 5608 5604 5601 5597 5593 5589 5585 5581 5577 5574 5570 5566 5562 5558 5554 5550 5546 5542 5537 5532 5528 5523 5518 5513 5507 5501 5496 5491 5485 5480 5476 5470 5465 5460 5455 5450 5445 5440 5434 5428 5423 5418 5413 5409 5404 5400 5397 5394 5391 5389 5387 5387
5721 5719 5718 5716 5714 5711 5709 5707 5705 5703 5701 5698 5696 5693 5691 5689 5686 5684 5681 5679 5676 5673 5671 5668 5665 5663 5660 5658 5655 5653 5651 5648 5645 5643 5640 5637 5634 5631 5627 5624 5620 5617 5614 5610 5606 5603 5599 5595 5591 5587 5584 5580 5576 5571 5568 5564 5560 5556 5551 5547 5543 5538 5534 5529 5525 5520 5514 5510 5504 5498 5493 5487 5481 5476 5470 5465 5460 5454 5449 5443 5437 5432 5426 5420 5414 5408 5403 5398 5394 5389 5385 5381 5378 5376 5373 5371 5370
5719 5717 5716 5714 5711 5709 5707 5704 5702 5700 5698 5696 5693 5690 5688 5686 5684 5681 5678 5676 5673 5671 5668 5665 5663 5661 5658 5656 5653 5650 5648 5645 5642 5639 5636 5633 5630 5626 5623 5620 5616 5612 5609 5605 5601 5598 5594 5590 5586 5582 5578 5574 5570 5566 5562 5558 5553 5549 5544 5540 5535 5530 5526 5521 5516 5511 5506 5501 5496 5490 5484 5478 5472 5466 5461 5455 5449 5443 5437 5431 5424 5417 5411 5405 5399 5393 5388 5384 5379 5375 5371 5367 5364 5361 5358 5356 5355
5717 5715 5713 5711 5709 5706 5704 5702 5699 5697 5695 5692 5690 5687 5684 5682 5680 5678 5675 5673 5670 5668 5666 5663 5660 5658 5656 5653 5650 5648 5645 5642 5639 5636 5633 5630 5626 5623 5619 5616 5612 5608 5604 5600 5596 5593 5589 5585 5581 5577 5572 5568 5564 5560 5555 5551 5546 5542 5537 5532 5527 5523 5518 5513 5508 5503 5497 5492 5487 5481 5475 5469 5463 5457 5451 5445 5439 5432 5426 5418 5411 5403 5396 5390 5384 5379 5373 5369 5364 5360 5356 5353 5350 5347 5344 5342 5341
5715 5713 5710 5708 5706 5703 5701 5699 5696 5694 5691 5689 5686 5683 5681 5679 5677 5675 5672 5670 5668 5666 5663 5660 5658 5655 5652 5650 5647 5644 5641 5638 5636 5632 5629 5626 5622 5618 5615 5611 5607 5603 5599 5595 5591 5587 5583 5579 5575 5571 5566 5561 5557 5553 5548 5543 5539 5534 5529 5524 5519 5514 5509 5504 5499 5494 5488 5483 5477 5472 5466 5460 5454 5447 5441 5435 5429 5422 5415 5407 5398 5390 5382 5376 5370 5364 5359 5353 5349 5345 5341 5338 5335 5332 5330 5328 5327
5713 5710 5708 5706 5703 5701 5698 5696 5693 5691 5689 5686 5683 5680 5678 5675 5673 5671 5669 5667 5664 5662 5660 5657 5655 5651 5648 5646 5643 5640 5637 5634 5631 5628 5625 5621 5617 5613 5609 5606 5601 5597 5593 5589 5585 5581 5576 5572 5568 5564 5559 5554 5550 5545 5540 5536 5531 5526 5521 5516 5511 5506 5501 5495 5490 5484 5479 5473 5468 5462 5456 5449 5443 5437 5431 5425 5418 5411 5403 5395 5387 5378 5370 5363 5356 5350 5344 5338 5333 5329 5326 5323 5320 5318 5315 5313 5312
5711 5709 5706 5704 5701 5699 5696 5693 5691 5689 5687 5685 5681 5678 5675 5672 5670 5668 5666 5664 5662 5659 5657 5654 5651 5648 5645 5642 5639 5636 5633 5630 5626 5623 5620 5616 5612 5608 5604 5600 5596 5591 5587 5583 5578 5574 5570 5566 5561 5557 5552 5547 5542 5538 5533 5528 5523 5518 5513 5507 5502 5497 5492 5486 5481 5475 5469 5464 5458 5452 5445 5439 5432 5426 5420 5414 5407 5399 5391 5383 5374 5365 5358 5350 5343 5336 5329 5324 5319 5315 5312 5309 5306 5304 5301 5299 5298
5710 5707 5705 5702 5700 5697 5694 5692 5689 5686 5685 5684 5681 5678 5674 5669 5667 5665 5663 5661 5658 5655 5652 5650 5647 5644 5641 5638 5635 5631 5628 5624 5621 5617 5614 5610 5606 5602 5598 5594 5590 5585 5581 5576 5572 5567 5563 5559 5554 5549 5545 5539 5534 5530 5525 5520 5515 5509 5504 5499 5493 5488 5483 5477 5472 5466 5460 5455 5449 5442 5435 5429 5422 5416 5409 5403 5395 5387 5378 5370 5361 5352 5345 5337 5329 5322 5316 5311 5307 5303 5299 5297 5294 5291 5289 5288 5286
5708 5705 5703 5700 5698 5695 5692 5689 5687 5683 5681 5681 5679 5677 5672 5667 5664 5662 5659 5658 5655 5652 5649 5646 5643 5639 5636 5633 5630 5626 5623 5619 5616 5612 5608 5604 5600 5596 5592 5588 5583 5579 5574 5570 5565 5560 5556 5551 5546 5542 5537 5532 5527 5522 5517 5511 5506 5501 5495 5490 5485 5479 5474 5469 5463 5457 5451 5446 5439 5432 5426 5419 5412 5406 5399 5392 5384 5375 5366 5357 5349 5340 5332 5325 5317 5311 5305 5301 5296 5292 5289 5286 5283 5280 5278 5277 5276
5706 5703 5701 5698 5695 5693 5690 5687 5684 5680 5676 5676 5676 5674 5670 5665 5660 5657 5656 5654 5652 5648 5645 5642 5639 5635 5632 5629 5625 5621 5618 5614 5610 5606 5602 5598 5594 5589 5585 5581 5576 5572 5567 5562 5558 5553 5548 5544 5539 5534 5529 5524 5519 5513 5508 5503 5498 5492 5487 5482 5476 5471 5466 5460 5454 5449 5443 5436 5430 5423 5416 5409 5402 5395 5388 5381 5373 5364 5355 5345 5337 5329 5321 5313 5306 5301 5296 5291 5286 5282 5279 5275 5273 5270 5268 5267 5266
5703 5701 5698 5695 5693 5691 5688 5684 5680 5676 5671 5669 5670 5670 5668 5662 5655 5653 5651 5649 5647 5644 5641 5637 5634 5631 5627 5624 5620 5616 5612 5608 5604 5600 5596 5592 5587 5583 5578 5574 5569 5564 5560 5555 5550 5545 5541 5536 5531 5526 5521 5516 5511 5505 5500 5495 5490 5484 5479 5474 5468 5463 5457 5451 5446 5440 5434 5427 5420 5413 5406 5399 5392 5384 5377 5369 5361 5353 5344 5335 5326 5318 5311 5303 5297 5292 5287 5282 5277 5273 5270 5266 5263 5261 5259 5259 5257
5701 5698 5696 5693 5690 5687 5685 5683 5678 5674 5668 5664 5661 5663 5666 5660 5651 5648 5646 5643 5642 5639 5635 5632 5629 5626 5622 5618 5614 5610 5606 5602 5598 5594 5589 5585 5581 5576 5571 5567 5562 5557 5552 5548 5543 5538 5533 5528 5523 5518 5513 5508 5503 5497 5492 5487 5481 5476 5471 5465 5460 5454 5448 5443 5437 5430 5424 5417 5410 5403 5395 5388 5381 5374 5366 5358 5350 5342 5333 5324 5316 5308 5301 5294 5288 5283 5278 5274 5270 5265 5261 5258 5255 5253 5251 5251 5249
5699 5696 5693 5690 5687 5684 5681 5680 5677 5672 5667 5662 5656 5654 5660 5660 5649 5644 5641 5636 5634 5632 5628 5626 5623 5620 5617 5613 5609 5605 5600 5597 5592 5588 5583 5579 5574 5569 5565 5560 5555 5550 5545 5540 5535 5530 5525 5520 5515 5510 5505 5500 5495 5489 5484 5479 5473 5468 5462 5456 5451 5445 5439 5433 5427 5421 5414 5407 5400 5392 5385 5378 5371 5363 5355 5348 5340 5331 5322 5314 5306 5298 5291 5285 5280 5275 5271 5266 5262 5258 5254 5250 5248 5245 5244 5243 5242
5696 5694 5690 5687 5684 5680 5676 5674 5674 5671 5665 5661 5653 5647 5654 5658 5650 5643 5639 5633 5629 5626 5622 5620 5617 5614 5611 5607 5603 5598 5595 5591 5586 5581 5577 5572 5567 5562 5558 5553 5547 5542 5537 5532 5527 5522 5517 5513 5507 5502 5497 5492 5486 5481 5476 5470 5465 5459 5454 5448 5442 5436 5430 5424 5418 5411 5405 5397 5389 5382 5374 5367 5361 5353 5345 5337 5329 5321 5312 5304 5297 5289 5282 5277 5272 5267 5263 5259 5255 5250 5247 5243 5241 5239 5237 5236 5235